Regional Weather Roundup
Issued by NWS

Home | Current Version | Previous Version | Graphics & Text | Print | Product List | Glossary On
Versions: 1 2 3 4 5 6 7 8 9 10 11 12 13 14 15 16 17 18 19 20 21 22 23 24 25 26 27 28 29 30 31 32 33 34 35 36 37 38 39 40 41 42 43 44 45 46 47 48 49 50
000
ASUS43 KLSX 310107
RWRMO

WEATHER SUMMARY FOR MISSOURI
NATIONAL WEATHER SERVICE SPRINGFIELD MO
800 PM CDT THU JUL 30 2015

NOTE: "FAIR" INDICATES FEW OR NO CLOUDS BELOW 12,000 FEET WITH NO
       SIGNIFICANT WEATHER AND/OR OBSTRUCTIONS TO VISIBILITY.
       CURRENT SKY AND/OR WEATHER CONDITIONS ARE NOT AVAILABLE FOR
       CHILLICOTHE AND FARMINGTON.

MOZ001>031-035>038-043-044-053-054-310200-
...NORTHERN AND WESTERN MISSOURI...

CITY           SKY/WX    TMP DP  RH WIND       PRES   REMARKS
KANSAS CTY INT PTCLDY    83  67  58 CALM      30.14S
KANSAS C DTWN  PTCLDY    82  59  45 S6        30.12S
LEE`S SUMMIT   CLEAR     81  64  56 CALM      30.14F
ST JOSEPH      CLEAR     81  70  69 S5        30.12S
CHILLICOTHE      N/A     81  69  67 CALM      30.14R
KIRKSVILLE     CLEAR     80  66  62 W3        30.13S

$$
MOZ066>068-077>081-088>096-101>105-310200-
...SOUTHWEST MISSOURI...

CITY           SKY/WX    TMP DP  RH WIND       PRES   REMARKS
SPRINGFIELD    CLEAR     80  64  58 NE9       30.14S
JOPLIN         CLOUDY    81  65  58 NE3       30.13S

$$
MOZ032>034-039>042-045>050-055>058-069>072-310200-
...CENTRAL MISSOURI...

CITY           SKY/WX    TMP DP  RH WIND       PRES   REMARKS
COLUMBIA       PTCLDY    81  68  64 NW5       30.14R
JEFFERSON CITY PTCLDY    81  67  62 CALM      30.11S
ROLLA          PTCLDY    80  64  58 CALM      30.13F
SEDALIA        PTCLDY    81  65  58 S3        30.14F
WHITEMAN AFB   CLEAR     82  67  60 CALM      30.12F
WARRENSBURG    CLEAR     79  68  69 CALM      30.13S
OSAGE BEACH    CLEAR     75  70  83 CALM      30.14S

$$
MOZ051-052-059>065-310200-
...EAST CENTRAL MISSOURI...

CITY           SKY/WX    TMP DP  RH WIND       PRES   REMARKS
ST LOUIS INTL  PTCLDY    84  62  47 NW6       30.10F
SPIRIT OF STL  PTCLDY    78  71  79 CALM      30.10R
ST CHARLES     PTCLDY    84  66  54 W3        30.09S

$$
MOZ072>076-082>087-097>100-106>115-310200-
...SOUTH CENTRAL AND SOUTHEAST MISSOURI...

CITY           SKY/WX    TMP DP  RH WIND       PRES   REMARKS
CAPE GIRARDEAU CLEAR     79  67  66 N3        30.08S
FARMINGTON     PTCLDY    79  63  57 CALM      30.16S
POPLAR BLUFF   PTCLDY    78  71  79 CALM      30.08S
WEST PLAINS    PTCLDY    79  66  64 CALM      30.16S

$$


USA.gov is the U.S. government's official web portal to all federal, state and local government web resources and services.